Wind_Speed
15 16 16 16 16 17 17 17 17 16 17 17 19 20 21 21 21 22 23 24 24 25 26 27 28 30 31 33 34 36 37 38 38 39 40 41 42 44 44 45 45 45 45 46
18 19 19 18 18 19 19 19 19 19 18 20 21 21 21 21 21 22 23 24 25 26 27 28 29 30 31 33 34 36 38 39 40 40 41 41 43 44 45 45 46 46 46 46
21 21 21 20 19 21 21 21 22 21 21 22 22 22 22 23 23 24 25 26 27 28 29 29 30 31 32 34 36 37 39 40 41 41 42 43 43 45 46 46 47 47 46 46
24 24 24 22 22 22 23 23 23 23 23 24 24 24 24 25 26 26 27 28 28 29 31 31 32 33 34 35 36 38 39 40 42 43 43 44 45 45 46 46 46 46 45 46
26 26 25 24 23 24 25 24 25 25 26 26 26 26 26 27 28 28 29 30 31 32 33 33 34 34 35 36 37 38 39 40 41 42 43 44 45 45 45 45 45 45 45 46
28 28 27 25 26 26 27 26 26 27 27 27 27 27 28 29 29 30 31 32 33 33 34 35 35 36 36 37 38 39 40 40 41 42 43 44 45 45 45 45 45 45 46 46
29 29 28 27 28 28 28 28 28 28 28 29 30 30 30 31 32 32 33 34 34 35 36 36 37 37 38 38 38 39 40 41 42 42 43 44 45 45 45 45 45 46 46 47
30 31 30 30 30 30 30 30 30 30 31 31 32 32 32 32 33 34 35 35 36 37 37 38 38 38 39 39 40 40 41 42 42 43 44 44 45 45 45 45 46 46 47 48
33 32 32 32 32 33 32 32 32 32 32 33 33 34 34 34 35 36 37 37 37 38 38 39 39 40 40 41 41 42 42 43 44 44 45 45 45 45 46 47 47 48 48 48
35 34 35 35 35 36 35 35 34 34 34 34 34 35 36 36 37 38 38 38 39 39 40 40 41 42 43 43 44 44 44 44 45 45 46 46 46 46 47 48 49 50 50 49
37 37 38 37 37 37 37 36 36 36 36 36 36 37 37 38 39 39 39 39 40 41 42 42 43 44 45 45 45 45 45 45 46 46 47 46 46 47 48 49 50 50 50 50
39 39 40 39 38 38 38 38 38 38 38 38 38 38 39 39 40 40 41 41 42 43 43 44 45 46 46 46 46 46 46 46 46 47 47 47 48 48 49 50 50 51 51 50
41 41 41 41 40 40 40 40 40 39 39 40 40 40 40 41 42 42 43 43 44 44 45 45 46 46 46 46 46 46 46 46 47 48 48 49 49 50 50 50 50 50 50 50
42 42 42 41 42 42 42 42 42 42 42 42 42 42 42 42 43 44 44 44 45 45 45 45 45 46 46 47 47 47 47 48 49 50 50 51 51 52 52 51 50 49 49 49
42 43 42 42 42 43 43 44 44 43 43 43 43 43 43 43 43 43 44 44 44 44 45 45 45 46 47 47 48 48 49 50 51 51 52 53 53 53 53 52 51 49 49 48
43 43 43 43 43 43 44 45 44 44 44 43 43 43 43 42 42 42 43 44 44 44 45 45 46 47 48 48 49 49 50 51 52 53 53 54 54 53 52 51 50 49 48 47
43 43 43 43 43 43 44 44 43 43 43 43 42 42 42 42 42 43 43 44 44 45 46 47 48 49 50 50 51 51 52 53 53 54 54 53 53 52 51 50 49 48 47 46
43 43 43 43 44 44 43 43 43 42 42 42 41 41 41 42 42 42 43 44 46 47 48 49 50 51 51 52 53 54 54 54 54 54 53 52 52 51 50 49 48 47 46 45
41 41 42 42 42 43 43 42 42 42 41 41 41 41 41 42 43 44 45 46 47 48 49 50 51 52 53 54 54 54 54 54 54 53 52 51 50 49 48 47 46 45 45 43
39 40 40 41 41 41 42 41 41 41 41 41 41 42 42 43 44 46 47 47 48 50 50 51 52 53 53 53 54 54 54 53 52 51 50 49 48 47 46 46 44 43 42 41
40 40 40 40 40 41 41 41 40 41 41 42 43 43 44 44 46 47 48 48 49 50 51 51 52 52 52 52 53 52 52 51 50 48 47 47 46 45 44 44 43 42 41 39
40 40 40 41 41 41 41 41 42 42 43 43 44 45 45 46 46 48 48 49 50 51 51 52 52 52 51 51 50 49 48 47 46 46 45 45 44 43 43 42 42 40 38 36
39 39 40 40 41 41 41 42 42 43 43 44 45 46 47 47 48 49 49 49 50 51 51 51 51 50 48 47 47 46 46 45 45 45 45 44 43 43 42 41 39 37 35 33
39 40 40 40 41 41 41 42 42 43 44 45 46 47 48 49 49 50 50 50 50 51 50 49 48 47 46 46 45 45 45 45 45 44 44 43 42 42 40 38 36 34 32 30
39 39 40 40 41 41 41 42 42 43 44 45 46 47 48 49 50 50 50 50 50 50 49 47 47 46 46 45 45 44 44 43 43 42 41 40 39 38 36 34 32 30 28 28
40 40 41 41 42 43 43 43 44 44 45 46 47 48 49 50 51 51 50 49 48 47 46 46 45 45 44 44 43 43 42 42 41 40 39 37 35 33 31 30 28 27 27 26
40 41 42 42 43 43 44 44 44 45 46 47 48 48 49 50 50 49 48 47 47 46 46 45 44 44 43 42 41 41 40 39 38 37 35 34 32 30 28 27 26 25 25 24
Wind_Direction
289 287 284 280 278 277 277 278 277 276 273 271 269 269 271 272 273 271 270 270 272 275 277 278 279 279 279 279 278 279 280 281 281 282 283 284 285 286 286 286 286 286 285 285
286 285 284 283 281 279 279 278 278 277 276 271 270 272 272 272 273 273 273 272 273 276 279 281 282 283 283 283 283 282 282 282 282 284 286 287 287 287 287 287 287 287 287 286
285 283 282 283 282 280 280 279 278 279 277 273 274 274 273 273 274 274 275 276 277 278 281 282 284 285 286 285 285 285 284 284 285 286 287 288 288 288 288 288 288 288 287 287
284 282 282 284 283 281 280 279 279 280 278 277 276 275 275 275 275 276 276 278 280 281 283 284 285 286 287 288 288 288 288 288 288 287 288 289 289 289 289 289 289 288 288 287
284 284 284 283 283 281 280 279 280 280 279 279 278 277 277 276 277 278 279 280 282 284 285 286 286 287 289 290 290 290 291 291 291 290 290 290 290 290 289 289 288 288 288 288
284 284 284 284 283 281 280 280 280 280 280 279 278 278 278 277 279 280 281 283 284 285 287 288 288 288 289 291 292 292 292 293 293 292 292 292 292 291 290 290 289 288 288 288
282 283 284 284 283 282 281 282 281 280 280 279 279 279 279 279 280 281 282 283 285 286 287 288 289 289 290 291 292 293 294 294 294 294 294 294 294 293 291 291 290 289 288 288
280 281 284 283 282 281 280 280 281 281 281 281 280 280 280 280 281 281 282 284 285 286 287 288 289 290 290 291 292 293 294 294 295 295 295 295 294 293 292 292 292 291 290 290
278 280 281 281 281 280 280 280 281 281 281 281 281 280 280 280 281 282 284 284 285 286 288 289 290 290 290 291 292 293 293 294 295 295 296 295 295 294 293 293 293 293 292 291
277 277 277 278 278 279 280 280 280 281 281 282 281 281 281 282 282 283 284 285 286 287 288 289 290 290 291 291 292 292 293 294 294 295 296 296 296 295 295 295 294 293 293 292
274 275 275 276 278 279 280 280 280 281 281 282 281 281 281 282 283 283 284 285 286 287 289 290 290 291 291 292 293 293 293 294 294 295 296 297 297 297 297 296 296 295 294 293
273 273 274 276 277 278 279 280 280 280 281 281 281 281 281 281 282 283 284 285 286 288 289 290 291 291 292 292 293 293 294 294 295 296 297 297 297 298 298 298 297 296 295 293
274 274 274 275 276 277 278 279 279 280 280 281 281 281 281 281 283 284 285 286 287 288 290 291 292 293 293 293 293 294 294 295 296 296 297 297 298 298 298 298 298 297 296 295
272 273 274 274 275 275 277 277 278 279 280 281 281 281 282 283 283 284 285 286 288 289 290 291 292 293 293 293 294 294 295 296 296 297 297 297 298 298 298 298 297 296 295 294
272 273 274 275 275 276 276 277 278 280 280 280 281 282 282 283 284 284 285 286 288 289 290 291 292 293 293 294 295 295 296 296 297 297 297 298 298 299 299 298 298 296 295 294
271 272 274 275 276 277 278 279 279 280 280 280 281 281 282 283 284 285 286 287 288 290 290 291 293 293 293 294 295 296 296 297 297 297 298 298 299 299 298 298 298 297 295 294
272 273 275 276 277 278 280 280 280 280 280 280 280 280 281 282 284 285 286 288 289 290 291 292 293 294 294 294 295 296 297 297 298 298 298 299 299 299 299 298 297 297 295 294
272 273 274 275 277 279 280 280 280 280 280 280 280 281 282 283 284 285 287 288 290 291 292 293 293 294 295 295 296 297 297 298 298 298 298 298 299 299 299 298 297 296 295 294
273 273 274 276 277 279 279 279 279 279 280 280 281 282 283 284 285 286 288 289 291 292 293 294 294 295 296 296 297 298 298 298 298 298 298 298 298 299 299 298 297 296 294 293
273 274 275 276 277 278 279 279 280 280 281 281 282 282 283 284 285 287 289 290 291 292 293 294 295 296 297 297 297 298 298 298 298 297 297 297 298 298 298 298 297 296 295 293
273 275 275 276 277 278 279 280 280 281 281 282 283 284 285 286 287 288 289 290 292 293 294 295 296 296 297 297 298 298 298 298 298 297 297 297 297 298 298 298 298 296 294 293
274 275 275 276 276 278 279 280 281 281 281 282 283 284 285 286 287 288 289 291 292 293 294 295 296 296 297 297 298 298 298 298 298 298 298 298 298 298 298 298 297 296 294 292
276 276 277 277 277 278 280 281 281 282 282 283 284 285 286 287 288 288 289 291 292 293 294 295 295 296 296 297 298 298 299 298 298 298 298 298 298 298 298 298 296 294 292 290
276 276 276 277 279 280 280 281 282 283 284 285 286 287 288 288 289 290 290 291 291 292 293 294 294 294 295 296 297 298 299 299 299 299 298 298 298 298 298 296 294 292 290 289
276 276 277 278 280 281 282 283 284 285 286 287 287 288 289 289 290 290 290 291 291 291 292 292 293 293 294 295 296 297 298 299 299 300 299 299 298 298 297 295 293 292 289 288
275 277 278 279 281 282 283 284 284 285 286 287 288 288 289 290 290 290 290 291 290 291 291 292 292 293 294 295 296 297 299 299 300 300 300 299 298 297 296 294 293 291 289 289
277 278 280 281 282 283 283 285 286 286 287 288 288 289 289 290 290 290 290 290 290 290 291 291 292 292 293 294 296 297 298 299 299 299 299 299 298 296 295 293 292 291 290 289
Height
5694 5693 5692 5692 5691 5690 5689 5689 5689 5689 5689 5688 5687 5686 5686 5686 5685 5685 5684 5684 5683 5682 5681 5680 5679 5678 5676 5675 5674 5672 5671 5669 5667 5665 5663 5661 5659 5656 5654 5651 5649 5646 5644 5641
5691 5689 5688 5688 5687 5686 5685 5685 5684 5684 5684 5683 5681 5681 5681 5680 5680 5679 5678 5677 5676 5675 5674 5673 5671 5670 5668 5666 5665 5663 5661 5659 5657 5655 5652 5650 5647 5645 5642 5639 5637 5634 5631 5629
5686 5684 5683 5684 5684 5682 5681 5680 5679 5678 5679 5676 5676 5675 5675 5674 5674 5673 5672 5671 5670 5668 5667 5665 5664 5662 5660 5657 5655 5653 5651 5649 5646 5644 5641 5638 5636 5633 5630 5627 5624 5622 5619 5616
5680 5680 5679 5681 5678 5676 5675 5674 5673 5672 5672 5671 5670 5669 5669 5668 5667 5666 5665 5663 5662 5660 5659 5657 5655 5653 5650 5648 5645 5643 5640 5638 5635 5632 5630 5627 5624 5621 5618 5615 5612 5609 5606 5603
5673 5672 5672 5673 5672 5669 5668 5668 5667 5666 5665 5664 5663 5663 5662 5661 5660 5658 5657 5656 5654 5652 5650 5648 5646 5643 5641 5638 5635 5633 5630 5627 5624 5621 5618 5615 5612 5609 5605 5602 5599 5596 5593 5590
5666 5665 5665 5667 5665 5662 5662 5662 5661 5659 5658 5657 5656 5656 5655 5653 5652 5650 5649 5647 5645 5643 5641 5638 5636 5634 5631 5628 5625 5622 5619 5616 5613 5609 5606 5603 5600 5596 5593 5589 5586 5583 5581 5577
5659 5657 5658 5659 5657 5655 5655 5655 5653 5651 5650 5649 5648 5647 5646 5645 5643 5642 5640 5638 5636 5633 5631 5629 5626 5623 5621 5618 5615 5611 5608 5605 5601 5598 5594 5591 5587 5584 5580 5577 5574 5571 5568 5564
5652 5650 5653 5650 5648 5647 5646 5645 5643 5642 5641 5640 5639 5638 5637 5635 5634 5632 5630 5628 5626 5624 5621 5618 5616 5613 5610 5607 5604 5601 5597 5594 5590 5586 5582 5579 5575 5571 5568 5564 5561 5558 5554 5551
5645 5645 5643 5641 5639 5638 5637 5636 5635 5634 5632 5631 5630 5629 5627 5626 5624 5622 5620 5618 5616 5613 5611 5608 5605 5602 5599 5596 5593 5590 5586 5582 5579 5575 5571 5567 5563 5559 5555 5551 5548 5544 5541 5537
5635 5635 5633 5631 5629 5628 5627 5626 5625 5624 5623 5622 5620 5619 5618 5616 5614 5612 5610 5608 5605 5603 5600 5597 5594 5591 5588 5585 5581 5578 5574 5571 5567 5563 5559 5554 5550 5546 5542 5538 5534 5530 5526 5523
5624 5624 5622 5621 5619 5618 5617 5617 5616 5615 5613 5612 5610 5609 5607 5605 5603 5601 5599 5597 5594 5592 5589 5586 5583 5580 5576 5573 5570 5566 5562 5559 5555 5551 5547 5542 5538 5533 5529 5524 5519 5515 5511 5508
5613 5612 5610 5611 5609 5608 5607 5606 5605 5604 5603 5601 5600 5598 5596 5594 5592 5590 5588 5586 5583 5580 5577 5574 5571 5568 5564 5561 5557 5553 5550 5546 5542 5538 5533 5529 5525 5521 5515 5510 5506 5501 5496 5493
5600 5600 5599 5599 5598 5597 5596 5595 5594 5593 5592 5590 5588 5587 5585 5583 5581 5578 5576 5574 5571 5568 5565 5562 5559 5555 5551 5548 5544 5541 5537 5533 5529 5525 5520 5516 5511 5507 5503 5498 5492 5487 5482 5477
5588 5587 5587 5587 5586 5585 5584 5583 5582 5581 5580 5578 5576 5574 5573 5571 5569 5566 5564 5561 5559 5556 5553 5550 5546 5542 5539 5535 5531 5528 5524 5520 5515 5511 5506 5502 5497 5492 5487 5483 5479 5474 5469 5464
5576 5575 5575 5575 5574 5573 5572 5571 5570 5569 5567 5566 5564 5562 5560 5559 5556 5554 5551 5549 5546 5543 5540 5537 5534 5530 5526 5522 5518 5515 5510 5506 5502 5497 5492 5487 5483 5478 5473 5468 5463 5459 5455 5451
5563 5562 5562 5562 5561 5561 5560 5559 5557 5556 5554 5553 5551 5550 5548 5546 5544 5542 5539 5536 5534 5531 5528 5524 5521 5517 5513 5509 5505 5501 5497 5492 5487 5482 5477 5473 5468 5463 5458 5453 5448 5444 5440 5437
5551 5551 5550 5549 5548 5547 5546 5545 5544 5543 5541 5540 5539 5537 5535 5534 5532 5529 5527 5524 5521 5518 5514 5511 5507 5503 5499 5495 5491 5487 5482 5477 5472 5467 5462 5457 5452 5447 5443 5438 5434 5430 5426 5422
5538 5538 5537 5536 5535 5534 5533 5532 5531 5530 5529 5527 5526 5525 5523 5521 5519 5517 5514 5511 5508 5505 5501 5497 5493 5489 5485 5480 5476 5471 5466 5462 5457 5452 5447 5442 5437 5433 5428 5424 5420 5416 5413 5409
5525 5525 5524 5523 5522 5522 5521 5520 5518 5517 5516 5515 5514 5512 5511 5509 5506 5504 5501 5498 5495 5491 5488 5483 5479 5475 5470 5466 5461 5456 5451 5446 5441 5436 5432 5427 5423 5419 5414 5410 5406 5402 5399 5396
5512 5512 5512 5511 5510 5509 5508 5507 5506 5505 5504 5502 5501 5500 5498 5496 5493 5491 5488 5485 5481 5477 5473 5469 5465 5460 5455 5450 5445 5440 5435 5431 5426 5422 5417 5413 5409 5405 5401 5397 5393 5389 5386 5382
5500 5500 5500 5499 5498 5497 5496 5495 5494 5493 5491 5490 5488 5487 5485 5483 5480 5477 5474 5471 5467 5462 5458 5454 5450 5445 5440 5436 5431 5426 5421 5416 5412 5407 5403 5400 5396 5392 5388 5384 5380 5377 5373 5370
5488 5488 5487 5487 5486 5485 5484 5483 5481 5480 5479 5477 5475 5473 5471 5469 5466 5463 5459 5456 5452 5448 5444 5440 5435 5430 5426 5421 5416 5412 5407 5403 5398 5394 5390 5387 5383 5379 5376 5372 5368 5365 5361 5358
5476 5475 5475 5474 5473 5472 5471 5470 5468 5467 5465 5463 5461 5459 5456 5454 5451 5448 5445 5442 5437 5433 5429 5425 5420 5416 5411 5407 5403 5399 5394 5390 5386 5382 5378 5374 5370 5367 5363 5360 5356 5353 5350 5348
5464 5463 5462 5461 5461 5460 5459 5457 5455 5453 5451 5449 5447 5444 5441 5439 5436 5433 5429 5426 5422 5418 5414 5410 5406 5402 5398 5394 5390 5386 5382 5377 5373 5369 5365 5361 5358 5354 5351 5347 5345 5342 5340 5338
5452 5451 5450 5449 5448 5447 5445 5444 5442 5440 5438 5435 5433 5430 5426 5423 5421 5418 5414 5411 5407 5403 5400 5396 5392 5388 5385 5381 5377 5373 5369 5365 5361 5357 5353 5350 5346 5343 5339 5336 5334 5332 5330 5329
5440 5439 5438 5437 5435 5434 5432 5430 5428 5426 5424 5422 5419 5416 5412 5409 5405 5402 5399 5395 5392 5388 5385 5382 5379 5375 5372 5368 5364 5361 5357 5353 5349 5345 5342 5338 5335 5332 5329 5327 5325 5323 5322 5320
5427 5426 5425 5423 5422 5420 5418 5416 5414 5412 5409 5407 5404 5401 5397 5394 5390 5387 5384 5381 5378 5375 5371 5368 5365 5362 5359 5356 5352 5349 5345 5342 5338 5335 5331 5328 5325 5323 5320 5318 5317 5315 5314 5312